Location: Trebic
(49.2170°N, 15.8830°E)
Time: 22:44:44
(UTC+02:00)

Transit 2A Rocket - Pass Details

Date: 26 July 2019
Orbit: 590 x 913 km, 66.7° (Epoch: 18 August)

Event Time Altitude Azimuth Distance (km) Brightness Sun altitude
Rises 05:32:50 0° 271° (W) 3,456 7.8 1.0°
Reaches altitude 10° 05:36:09 10° 288° (WNW) 2,471 7.3 1.4°
Maximum altitude 05:40:08 19° 333° (NNW) 1,851 7.1 2.0°
Drops below altitude 10° 05:43:55 10° 18° (NNE) 2,329 8.3 2.5°
Sets 05:46:56 0° 36° (NE) 3,191 9.5 3.0°
